Content
SEND FEEDBACK

Daily
Averages
Monthly
Summary
United States of America

MARBLEHEAD, OHIO


Home > North America > United States > Ohio
Elevation: 630 feet     Latitude: 41 30N     Longitude: 082 42W

WEATHER
 
SELECT A DAY
Number of Records: 184,797;   Date Range: 10/8/98 - 11/24/14
 
SHARE

PRINT THIS DATA

[ ← Previous Day ]
WEATHER ALMANAC - OCTOBER 1, 2013
[ Next Day → ]
[ °C ]   °F
Weather ElementAverageHighLow
Temperature66.7 °F82.9 °F (2:53 pm)57.2 °F (6:01 am)
Dewpoint56.4 °F62.1 °F (10:53 am)51.8 °F (6:01 am)
Humidity71.5 %88 % (6:15 am)41 % (4:53 pm)
Barometer30.03 in30.07 in (9:26 am)29.98 in (4:53 pm)
Wind Speed5.6 mph13.8 mph (1:53 pm)
Wind Gust21.9 mph (4:53 pm)
Weather ElementAverage
Visibility5.5 mi
Wind DirectionSSW (210.6 °)

Weather ElementTotal
Precipitation0.01 in
Cooling Degree Days5.1 (Base 65)
Growing Degree Days20.1 (Base 50)
Averaged from 36 records on October 1, 2013
WEATHER CONDITIONS BREAKOUT
WIND DIRECTION BREAKOUT
WEATHER BY HOUR - OCTOBER 1, 2013
[ °C ]   °F
Local TimeTemperatureDewpointHumidityBarometerVisibilityWind DirectionWind SpeedGust SpeedPrecipitationEventsConditions
1:53 AM61.0 °F55.9 °F83 %30.00 in3.0 miSW (230°)4.6 mphHaze
2:09 AM60.8 °F55.4 °F82 %30.01 in2.5 miSW (230°)3.5 mphHaze
2:37 AM60.8 °F55.4 °F82 %30.01 in3.0 miSW (220°)5.8 mphHaze
2:53 AM61.0 °F55.9 °F83 %30.01 in3.0 miSW (230°)4.6 mphHaze
3:53 AM61.0 °F55.0 °F81 %30.01 in3.0 miSSW (200°)3.5 mph0.01 inHaze
4:19 AM59.0 °F53.6 °F82 %30.02 in2.0 miSouth (190°)3.5 mphHaze
4:28 AM59.0 °F53.6 °F82 %30.02 in1.8 miSouth (180°)3.5 mphHaze
4:53 AM59.0 °F54.0 °F83 %30.02 in1.2 miSouth (180°)3.5 mphHaze
5:07 AM59.0 °F53.6 °F82 %30.03 in0.8 miSouth (190°)3.5 mphHaze
5:32 AM59.0 °F53.6 °F82 %30.03 in0.5 miSSW (200°)3.5 mphHaze
5:53 AM57.9 °F53.1 °F84 %30.03 in0.5 miCalmHaze
6:01 AM57.2 °F51.8 °F82 %30.04 in0.8 miSSW (210°)3.5 mphHaze
6:15 AM57.2 °F53.6 °F88 %30.05 in1.0 miSSW (210°)4.6 mphClear
6:29 AM57.2 °F53.6 °F88 %30.05 in2.0 miSSW (210°)3.5 mphHaze
6:51 AM57.2 °F53.6 °F88 %30.05 in1.8 miSW (230°)5.8 mphHaze
6:53 AM57.9 °F53.1 °F84 %30.05 in1.8 miSW (230°)4.6 mphHaze
7:53 AM59.0 °F54.0 °F83 %30.06 in1.0 miSSW (210°)4.6 mphHaze
8:53 AM64.0 °F57.9 °F80 %30.06 in2.0 miWSW (240°)4.6 mphHaze
9:26 AM66.2 °F60.8 °F83 %30.07 in3.0 miSW (230°)4.6 mphHaze
9:53 AM70.0 °F61.0 °F73 %30.06 in4.0 miSW (230°)6.9 mphHaze
10:53 AM73.9 °F62.1 °F66 %30.07 in8.0 miWSW (250°)5.8 mphPartly Cloudy
11:46 AM77.0 °F60.8 °F57 %30.07 in10.0 miWSW (250°)8.1 mphOvercast
11:53 AM79.0 °F62.1 °F56 %30.06 in10.0 miSW (230°)8.1 mphOvercast
12:06 PM78.8 °F60.8 °F54 %30.06 in10.0 miSW (220°)10.4 mph16.1 mphMostly Cloudy
12:53 PM79.0 °F60.1 °F52 %30.04 in10.0 miWest (270°)9.2 mphScattered Clouds
1:53 PM81.0 °F59.0 °F47 %30.02 in10.0 miWSW (240°)13.8 mph17.3 mphPartly Cloudy
2:53 PM82.9 °F59.0 °F44 %30.00 in10.0 miSW (220°)13.8 mph20.7 mphClear
3:53 PM81.0 °F57.9 °F45 %29.99 in10.0 miWSW (240°)9.2 mph19.6 mphScattered Clouds
4:53 PM82.9 °F57.0 °F41 %29.98 in10.0 miWSW (250°)10.4 mph21.9 mphScattered Clouds
5:53 PM81.0 °F55.9 °F42 %29.98 in10.0 miSW (230°)8.1 mphClear
6:53 PM75.0 °F57.0 °F53 %29.98 in10.0 miSW (230°)6.9 mphClear
7:53 PM70.0 °F57.0 °F63 %29.99 in10.0 miWSW (240°)3.5 mphClear
8:53 PM66.0 °F55.9 °F70 %30.00 in10.0 miSW (230°)4.6 mphClear
9:53 PM64.9 °F55.9 °F73 %30.01 in10.0 miCalmClear
10:53 PM62.1 °F55.0 °F78 %30.01 in10.0 miSSW (210°)3.5 mphClear
11:53 PM63.0 °F55.9 °F78 %30.01 in10.0 miSW (220°)4.6 mphClear
Hourly data recorded from KLPR, located miles away from Marblehead, Ohio







STORIES FROM OUR PARTNERS